| time (UTC) | temp F | wind direction | speed knots | gust knots | rain 1hr in | rain 24hr in | rain mn in | humidity % | barometer mb |
| 20260506222013 | 70 | 319 | 0.9 | 12.2 | 0.00 | 0.04 | 0.04 | 73 | 1008.9 |
| 20260506221530 | 70 | 269 | 1.7 | 12.2 | 0.00 | 0.04 | 0.04 | 72 | 1009.0 |
| 20260506221138 | 70 | 268 | 1.7 | 5.2 | 0.00 | 0.04 | 0.04 | 73 | 1009.0 |
| 20260506215510 | 70 | 229 | 1.7 | 4.3 | 0.00 | 0.04 | 0.04 | 73 | 1009.0 |
| 20260506215009 | 70 | 277 | 0.9 | 5.2 | 0.00 | 0.04 | 0.04 | 73 | 1008.9 |
| 20260506214728 | 70 | 199 | 0.9 | 5.2 | 0.00 | 0.04 | 0.04 | 72 | 1008.8 |
| 20260506214534 | 70 | 199 | 0.9 | 5.2 | 0.00 | 0.04 | 0.04 | 72 | 1008.8 |
| 20260506214011 | 71 | 238 | 0.9 | 7.0 | 0.00 | 0.04 | 0.04 | 74 | 1008.8 |
| 20260506213520 | 70 | 26 | 2.6 | 7.0 | 0.00 | 0.04 | 0.04 | 73 | 1008.5 |
| 20260506213138 | 70 | 189 | 0.9 | 6.1 | 0.00 | 0.04 | 0.04 | 73 | 1008.6 |
| 20260506212919 | 70 | 163 | 0.9 | 6.1 | 0.00 | 0.04 | 0.04 | 73 | 1008.6 |
| 20260506212020 | 70 | 193 | 1.7 | 9.6 | 0.00 | 0.04 | 0.04 | 73 | 1008.6 |
| 20260506211532 | 70 | 0 | 0.9 | 9.6 | 0.00 | 0.04 | 0.04 | 73 | 1008.6 |
| 20260506211010 | 70 | 264 | 2.6 | 9.6 | 0.00 | 0.04 | 0.04 | 72 | 1008.5 |
| 20260506210509 | 70 | 296 | 0.9 | 6.1 | 0.00 | 0.04 | 0.04 | 73 | 1008.5 |
| 20260506210032 | 70 | 0 | 2.6 | 7.0 | 0.00 | 0.04 | 0.04 | 73 | 1008.4 |
| 20260506205511 | 70 | 219 | 0.0 | 7.0 | 0.00 | 0.04 | 0.04 | 74 | 1008.3 |
| 20260506205010 | 70 | 164 | 1.7 | 9.6 | 0.00 | 0.04 | 0.04 | 73 | 1008.3 |
| 20260506204713 | 70 | 242 | 1.7 | 9.6 | 0.00 | 0.04 | 0.04 | 73 | 1008.2 |
| 20260506202128 | 70 | 312 | 2.6 | 7.8 | 0.00 | 0.04 | 0.04 | 73 | 1008.3 |
| 20260506200030 | 69 | 148 | 1.7 | 10.4 | 0.00 | 0.04 | 0.04 | 74 | 1008.6 |
| 20260506195510 | 69 | 177 | 1.7 | 10.4 | 0.00 | 0.04 | 0.04 | 76 | 1008.7 |
| 20260506195009 | 69 | 117 | 0.9 | 6.1 | 0.00 | 0.04 | 0.04 | 76 | 1008.9 |
| 20260506194528 | 68 | 287 | 1.7 | 6.1 | 0.00 | 0.04 | 0.04 | 78 | 1008.9 |
| 20260506194008 | 67 | 243 | 1.7 | 7.8 | 0.00 | 0.04 | 0.04 | 78 | 1009.0 |
| 20260506193512 | 67 | 221 | 2.6 | 7.8 | 0.00 | 0.04 | 0.04 | 78 | 1009.2 |
| 20260506193200 | 67 | 269 | 0.9 | 7.8 | 0.00 | 0.04 | 0.04 | 79 | 1009.3 |
| 20260506192511 | 67 | 290 | 2.6 | 7.8 | 0.00 | 0.04 | 0.04 | 79 | 1009.3 |
| 20260506192011 | 67 | 47 | 1.7 | 6.1 | 0.00 | 0.04 | 0.04 | 80 | 1009.3 |
| 20260506191610 | 67 | 240 | 1.7 | 6.1 | 0.00 | 0.04 | 0.04 | 81 | 1009.3 |
| 20260506191009 | 67 | 221 | 1.7 | 8.7 | 0.00 | 0.04 | 0.04 | 81 | 1009.2 |
| 20260506190510 | 67 | 0 | 1.7 | 8.7 | 0.00 | 0.04 | 0.04 | 82 | 1009.1 |
| 20260506190030 | 66 | 190 | 2.6 | 8.7 | 0.01 | 0.04 | 0.04 | 83 | 1009.2 |
| 20260506185511 | 65 | 230 | 0.9 | 7.0 | 0.01 | 0.04 | 0.04 | 85 | 1009.4 |
| 20260506185013 | 65 | 171 | 1.7 | 6.1 | 0.02 | 0.04 | 0.04 | 85 | 1009.4 |
| 20260506184529 | 65 | 0 | 0.9 | 4.3 | 0.02 | 0.04 | 0.04 | 86 | 1009.5 |
| 20260506184017 | 64 | 182 | 1.7 | 7.8 | 0.03 | 0.04 | 0.04 | 86 | 1009.6 |
| 20260506183510 | 64 | 186 | 0.9 | 7.8 | 0.04 | 0.04 | 0.04 | 88 | 1009.7 |
| 20260506183030 | 64 | 194 | 2.6 | 7.8 | 0.04 | 0.04 | 0.04 | 87 | 1009.6 |
| 20260506182512 | 64 | 229 | 0.9 | 7.0 | 0.04 | 0.04 | 0.04 | 88 | 1009.7 |
| 20260506182011 | 64 | 153 | 2.6 | 8.7 | 0.04 | 0.04 | 0.04 | 89 | 1009.8 |
| 20260506181528 | 63 | 189 | 0.9 | 8.7 | 0.04 | 0.04 | 0.04 | 90 | 1009.8 |
| 20260506181010 | 63 | 217 | 1.7 | 8.7 | 0.04 | 0.04 | 0.04 | 89 | 1009.9 |
| 20260506180605 | 63 | 141 | 1.7 | 5.2 | 0.04 | 0.04 | 0.04 | 89 | 1009.8 |
| 20260506180030 | 63 | 306 | 1.7 | 7.8 | 0.03 | 0.03 | 0.03 | 87 | 1010.1 |
| 20260506175659 | 64 | 205 | 1.7 | 9.6 | 0.03 | 0.03 | 0.03 | 85 | 1010.0 |
| 20260506175017 | 64 | 204 | 0.9 | 10.4 | 0.02 | 0.02 | 0.02 | 84 | 1009.9 |
| 20260506174529 | 65 | 194 | 3.5 | 10.4 | 0.02 | 0.02 | 0.02 | 81 | 1010.1 |
| 20260506174008 | 67 | 128 | 0.9 | 7.8 | 0.00 | 0.00 | 0.00 | 77 | 1010.2 |
| 20260506173512 | 68 | 229 | 1.7 | 8.7 | 0.00 | 0.00 | 0.00 | 72 | 1010.1 |
| 20260506173041 | 69 | 173 | 2.6 | 8.7 | 0.00 | 0.00 | 0.00 | 69 | 1010.2 |
| 20260506172509 | 69 | 82 | 0.9 | 10.4 | 0.00 | 0.00 | 0.00 | 68 | 1010.2 |
| 20260506172135 | 70 | 186 | 1.7 | 10.4 | 0.00 | 0.00 | 0.00 | 67 | 1010.0 |
| 20260506171807 | 70 | 208 | 2.6 | 8.7 | 0.00 | 0.00 | 0.00 | 67 | 1010.1 |
| 20260506171009 | 71 | 209 | 1.7 | 10.4 | 0.00 | 0.00 | 0.00 | 67 | 1010.1 |
| 20260506170628 | 71 | 189 | 3.5 | 10.4 | 0.00 | 0.00 | 0.00 | 65 | 1010.1 |
| 20260506170028 | 72 | 265 | 2.6 | 8.7 | 0.00 | 0.00 | 0.00 | 62 | 1010.0 |
| 20260506165514 | 72 | 246 | 1.7 | 10.4 | 0.00 | 0.00 | 0.00 | 62 | 1010.1 |
| 20260506165011 | 72 | 302 | 2.6 | 10.4 | 0.00 | 0.00 | 0.00 | 61 | 1010.1 |
| 20260506164530 | 72 | 256 | 4.3 | 10.4 | 0.00 | 0.00 | 0.00 | 61 | 1010.2 |
| 20260506164011 | 72 | 124 | 2.6 | 12.2 | 0.00 | 0.00 | 0.00 | 61 | 1010.4 |
| 20260506163511 | 72 | 190 | 1.7 | 12.2 | 0.00 | 0.00 | 0.00 | 62 | 1010.6 |
| 20260506163032 | 72 | 288 | 1.7 | 7.8 | 0.00 | 0.00 | 0.00 | 62 | 1010.7 |
| 20260506162510 | 72 | 140 | 1.7 | 7.0 | 0.00 | 0.00 | 0.00 | 62 | 1010.8 |
| 20260506162011 | 72 | 344 | 1.7 | 8.7 | 0.00 | 0.00 | 0.00 | 61 | 1010.8 |
| 20260506161534 | 72 | 256 | 2.6 | 10.4 | 0.00 | 0.00 | 0.00 | 62 | 1011.1 |
| 20260506161451 | 72 | 227 | 4.3 | 10.4 | 0.00 | 0.00 | 0.00 | 61 | 1011.3 |
| 20260506160635 | 72 | 219 | 3.5 | 10.4 | 0.00 | 0.00 | 0.00 | 61 | 1011.1 |
| 20260506160305 | 72 | 0 | 0.9 | 7.8 | 0.00 | 0.00 | 0.00 | 62 | 1011.1 |
| 20260506155648 | 71 | 233 | 1.7 | 10.4 | 0.00 | 0.00 | 0.00 | 62 | 1011.1 |
| 20260506155044 | 71 | 158 | 1.7 | 10.4 | 0.00 | 0.00 | 0.00 | 62 | 1011.2 |
| 20260506154532 | 71 | 200 | 3.5 | 10.4 | 0.00 | 0.00 | 0.00 | 61 | 1011.1 |
| 20260506154011 | 71 | 201 | 2.6 | 7.8 | 0.00 | 0.00 | 0.00 | 61 | 1011.1 |
| 20260506153634 | 71 | 146 | 2.6 | 7.8 | 0.00 | 0.00 | 0.00 | 61 | 1011.3 |
| 20260506153431 | 71 | 263 | 2.6 | 7.8 | 0.00 | 0.00 | 0.00 | 61 | 1011.1 |
| 20260506152510 | 72 | 290 | 2.6 | 8.7 | 0.00 | 0.00 | 0.00 | 60 | 1011.3 |
| 20260506152017 | 72 | 9 | 0.9 | 9.6 | 0.00 | 0.00 | 0.00 | 60 | 1011.3 |
| 20260506151617 | 72 | 114 | 4.3 | 9.6 | 0.00 | 0.00 | 0.00 | 59 | 1011.2 |
| 20260506151011 | 72 | 248 | 1.7 | 8.7 | 0.00 | 0.00 | 0.00 | 60 | 1011.3 |
| 20260506150643 | 71 | 151 | 2.6 | 9.6 | 0.00 | 0.00 | 0.00 | 61 | 1011.1 |
| 20260506150132 | 71 | 254 | 3.5 | 9.6 | 0.00 | 0.00 | 0.00 | 60 | 1011.2 |
| 20260506145600 | 72 | 205 | 1.7 | 7.8 | 0.00 | 0.00 | 0.00 | 60 | 1011.3 |
| 20260506145519 | 72 | 205 | 1.7 | 7.8 | 0.00 | 0.00 | 0.00 | 60 | 1011.3 |
| 20260506145128 | 72 | 284 | 3.5 | 13.9 | 0.00 | 0.00 | 0.00 | 60 | 1011.2 |
| 20260506145017 | 72 | 284 | 3.5 | 13.9 | 0.00 | 0.00 | 0.00 | 60 | 1011.2 |
| 20260506144534 | 71 | 162 | 3.5 | 13.9 | 0.00 | 0.00 | 0.00 | 60 | 1011.3 |
| 20260506144015 | 71 | 210 | 1.7 | 9.6 | 0.00 | 0.00 | 0.00 | 61 | 1011.3 |
| 20260506143510 | 71 | 266 | 3.5 | 9.6 | 0.00 | 0.00 | 0.00 | 61 | 1011.2 |
| 20260506143031 | 71 | 265 | 2.6 | 9.6 | 0.00 | 0.00 | 0.00 | 61 | 1011.4 |
| 20260506142636 | 71 | 297 | 4.3 | 9.6 | 0.00 | 0.00 | 0.00 | 61 | 1011.5 |
| 20260506142218 | 71 | 223 | 3.5 | 11.3 | 0.00 | 0.00 | 0.00 | 61 | 1011.6 |
| 20260506141730 | 71 | 285 | 4.3 | 11.3 | 0.00 | 0.00 | 0.00 | 60 | 1011.8 |
| 20260506141012 | 71 | 0 | 1.7 | 10.4 | 0.00 | 0.00 | 0.00 | 61 | 1011.5 |
| 20260506140516 | 70 | 261 | 3.5 | 10.4 | 0.00 | 0.00 | 0.00 | 62 | 1011.6 |
| 20260506140148 | 71 | 228 | 2.6 | 8.7 | 0.00 | 0.00 | 0.00 | 61 | 1011.4 |
| 20260506135549 | 70 | 288 | 1.7 | 8.7 | 0.00 | 0.00 | 0.00 | 63 | 1011.5 |
| 20260506135023 | 70 | 192 | 2.6 | 10.4 | 0.00 | 0.00 | 0.00 | 62 | 1011.6 |
| 20260506134634 | 69 | 182 | 3.5 | 10.4 | 0.00 | 0.00 | 0.00 | 64 | 1011.6 |
| 20260506134014 | 69 | 189 | 2.6 | 7.8 | 0.00 | 0.00 | 0.00 | 63 | 1011.7 |
| 20260506133716 | 69 | 233 | 1.7 | 7.8 | 0.00 | 0.00 | 0.00 | 63 | 1011.7 |
| 20260506132058 | 70 | 329 | 2.6 | 6.1 | 0.00 | 0.00 | 0.00 | 63 | 1011.9 |
| 20260506132010 | 70 | 329 | 2.6 | 6.1 | 0.00 | 0.00 | 0.00 | 63 | 1011.9 |
| 20260506131528 | 70 | 157 | 1.7 | 6.1 | 0.00 | 0.00 | 0.00 | 63 | 1012.0 |
| 20260506131008 | 70 | 182 | 1.7 | 9.6 | 0.00 | 0.00 | 0.00 | 63 | 1012.0 |
| 20260506130509 | 70 | 155 | 2.6 | 9.6 | 0.00 | 0.00 | 0.00 | 63 | 1012.0 |
| 20260506130029 | 70 | 197 | 1.7 | 7.8 | 0.00 | 0.00 | 0.00 | 63 | 1012.0 |
| 20260506125508 | 70 | 40 | 2.6 | 7.8 | 0.00 | 0.00 | 0.00 | 64 | 1012.0 |
| 20260506125008 | 70 | 118 | 1.7 | 7.8 | 0.00 | 0.00 | 0.00 | 65 | 1011.9 |
| 20260506124529 | 69 | 213 | 2.6 | 7.8 | 0.00 | 0.00 | 0.00 | 65 | 1012.1 |
| 20260506124010 | 69 | 224 | 1.7 | 6.1 | 0.00 | 0.00 | 0.00 | 65 | 1012.1 |
| 20260506123512 | 69 | 169 | 1.7 | 7.8 | 0.00 | 0.00 | 0.00 | 66 | 1011.9 |
| 20260506123029 | 68 | 0 | 1.7 | 8.7 | 0.00 | 0.00 | 0.00 | 66 | 1012.0 |
| 20260506122508 | 68 | 313 | 1.7 | 8.7 | 0.00 | 0.00 | 0.00 | 67 | 1011.9 |
| 20260506122018 | 68 | 141 | 0.9 | 9.6 | 0.00 | 0.00 | 0.00 | 68 | 1011.9 |
| 20260506121529 | 67 | 108 | 2.6 | 9.6 | 0.00 | 0.00 | 0.00 | 69 | 1011.9 |
| 20260506121010 | 66 | 272 | 2.6 | 9.6 | 0.00 | 0.00 | 0.00 | 70 | 1012.0 |
| 20260506120512 | 66 | 182 | 0.9 | 7.8 | 0.00 | 0.00 | 0.00 | 70 | 1012.0 |
| 20260506120031 | 66 | 161 | 1.7 | 7.8 | 0.00 | 0.00 | 0.00 | 71 | 1011.9 |
| 20260506115514 | 66 | 166 | 0.9 | 4.3 | 0.00 | 0.00 | 0.00 | 72 | 1011.9 |
| 20260506115023 | 65 | 208 | 1.7 | 7.8 | 0.00 | 0.00 | 0.00 | 73 | 1011.8 |
| 20260506114527 | 65 | 171 | 0.9 | 8.7 | 0.00 | 0.00 | 0.00 | 75 | 1011.8 |
| 20260506114010 | 64 | 121 | 2.6 | 8.7 | 0.00 | 0.00 | 0.00 | 75 | 1011.8 |
| 20260506113510 | 64 | 158 | 0.9 | 3.5 | 0.00 | 0.00 | 0.00 | 77 | 1011.9 |
| 20260506113048 | 63 | 172 | 0.9 | 3.5 | 0.00 | 0.00 | 0.00 | 78 | 1011.8 |
| 20260506112512 | 63 | 0 | 0.9 | 4.3 | 0.00 | 0.00 | 0.00 | 78 | 1011.9 |
| 20260506112010 | 62 | 153 | 0.9 | 4.3 | 0.00 | 0.00 | 0.00 | 79 | 1011.8 |
| 20260506111527 | 62 | 140 | 0.9 | 4.3 | 0.00 | 0.00 | 0.00 | 80 | 1012.0 |
| 20260506111011 | 61 | 203 | 1.7 | 4.3 | 0.00 | 0.00 | 0.00 | 81 | 1012.0 |
| 20260506110508 | 61 | 157 | 0.9 | 5.2 | 0.00 | 0.00 | 0.00 | 81 | 1012.0 |
| 20260506110030 | 61 | 157 | 0.0 | 5.2 | 0.00 | 0.00 | 0.00 | 81 | 1011.9 |
| 20260506105509 | 61 | 186 | 1.7 | 5.2 | 0.00 | 0.00 | 0.00 | 82 | 1012.0 |
| 20260506105026 | 61 | 192 | 0.9 | 3.5 | 0.00 | 0.00 | 0.00 | 82 | 1011.9 |
| 20260506104529 | 60 | 229 | 0.0 | 4.3 | 0.00 | 0.00 | 0.00 | 83 | 1012.0 |
| 20260506104012 | 60 | 158 | 0.0 | 4.3 | 0.00 | 0.00 | 0.00 | 83 | 1012.0 |
| 20260506103510 | 60 | 201 | 0.9 | 3.5 | 0.00 | 0.00 | 0.00 | 83 | 1012.0 |
| 20260506103030 | 60 | 155 | 0.9 | 3.5 | 0.00 | 0.00 | 0.00 | 83 | 1012.0 |
| 20260506102510 | 60 | 247 | 0.9 | 5.2 | 0.00 | 0.00 | 0.00 | 83 | 1011.9 |
| 20260506102012 | 60 | 241 | 0.9 | 5.2 | 0.00 | 0.00 | 0.00 | 83 | 1011.8 |
| 20260506101528 | 60 | 136 | 0.9 | 5.2 | 0.00 | 0.00 | 0.00 | 84 | 1011.8 |
| 20260506101008 | 60 | 209 | 0.9 | 4.3 | 0.00 | 0.00 | 0.00 | 84 | 1011.8 |
| 20260506100511 | 59 | 0 | 0.0 | 4.3 | 0.00 | 0.00 | 0.00 | 84 | 1011.8 |
| 20260506100027 | 59 | 0 | 0.9 | 4.3 | 0.00 | 0.00 | 0.00 | 85 | 1011.9 |
| 20260506095510 | 59 | 153 | 0.0 | 4.3 | 0.00 | 0.00 | 0.00 | 85 | 1011.8 |
| 20260506095009 | 59 | 158 | 0.9 | 4.3 | 0.00 | 0.00 | 0.00 | 85 | 1011.7 |
| 20260506094529 | 59 | 181 | 0.9 | 3.5 | 0.00 | 0.00 | 0.00 | 85 | 1011.7 |
| 20260506094009 | 59 | 0 | 0.0 | 4.3 | 0.00 | 0.00 | 0.00 | 85 | 1011.7 |
| 20260506093510 | 59 | 163 | 0.9 | 4.3 | 0.00 | 0.00 | 0.00 | 85 | 1011.6 |
| 20260506093037 | 59 | 168 | 0.9 | 2.6 | 0.00 | 0.00 | 0.00 | 86 | 1011.8 |
| 20260506092509 | 59 | 113 | 0.9 | 3.5 | 0.00 | 0.00 | 0.00 | 86 | 1011.8 |
| 20260506092011 | 59 | 154 | 0.9 | 3.5 | 0.00 | 0.00 | 0.00 | 86 | 1011.9 |
| 20260506091528 | 59 | 0 | 0.0 | 1.7 | 0.00 | 0.00 | 0.00 | 85 | 1011.9 |
| 20260506091007 | 60 | 170 | 0.0 | 1.7 | 0.00 | 0.00 | 0.00 | 85 | 1011.9 |
| 20260506090510 | 60 | 0 | 0.0 | 3.5 | 0.00 | 0.00 | 0.00 | 85 | 1011.9 |
| 20260506090028 | 60 | 182 | 0.0 | 3.5 | 0.00 | 0.00 | 0.00 | 85 | 1012.0 |
| 20260506085507 | 60 | 218 | 0.0 | 3.5 | 0.00 | 0.00 | 0.00 | 85 | 1012.1 |
| 20260506085009 | 60 | 225 | 0.9 | 3.5 | 0.00 | 0.00 | 0.00 | 85 | 1012.1 |
| 20260506084534 | 60 | 257 | 0.0 | 1.7 | 0.00 | 0.00 | 0.00 | 86 | 1012.1 |
| 20260506084011 | 60 | 0 | 0.0 | 3.5 | 0.00 | 0.00 | 0.00 | 86 | 1012.1 |
| 20260506083511 | 60 | 135 | 0.0 | 6.1 | 0.00 | 0.00 | 0.00 | 85 | 1012.3 |
| 20260506083030 | 60 | 175 | 0.9 | 6.1 | 0.00 | 0.00 | 0.00 | 86 | 1012.2 |
| 20260506082510 | 59 | 212 | 0.9 | 6.1 | 0.00 | 0.00 | 0.00 | 86 | 1012.1 |
| 20260506082009 | 59 | 0 | 0.9 | 4.3 | 0.00 | 0.00 | 0.00 | 86 | 1012.1 |
| 20260506081528 | 59 | 0 | 0.0 | 3.5 | 0.00 | 0.00 | 0.00 | 86 | 1012.2 |
| 20260506081009 | 60 | 199 | 0.9 | 4.3 | 0.00 | 0.00 | 0.00 | 86 | 1012.1 |
| 20260506080511 | 60 | 136 | 0.9 | 4.3 | 0.00 | 0.00 | 0.00 | 86 | 1012.0 |
| 20260506073511 | 59 | 154 | 0.0 | 1.7 | 0.00 | 0.00 | 0.00 | 86 | 1012.2 |
| 20260506073028 | 60 | 0 | 0.0 | 1.7 | 0.00 | 0.00 | 0.00 | 85 | 1012.2 |
| 20260506072512 | 60 | 188 | 0.0 | 2.6 | 0.00 | 0.00 | 0.00 | 85 | 1012.3 |
| 20260506072014 | 60 | 0 | 0.0 | 2.6 | 0.00 | 0.00 | 0.00 | 84 | 1012.3 |
| 20260506071529 | 60 | 0 | 0.0 | 2.6 | 0.00 | 0.00 | 0.00 | 84 | 1012.3 |
| 20260506071010 | 60 | 165 | 0.0 | 2.6 | 0.00 | 0.00 | 0.00 | 84 | 1012.4 |
| 20260506070507 | 61 | 131 | 0.0 | 2.6 | 0.00 | 0.00 | 0.00 | 83 | 1012.4 |
| 20260506062510 | 62 | 147 | 0.9 | 3.5 | 0.00 | 0.00 | 0.00 | 81 | 1012.4 |
| 20260506062009 | 62 | 156 | 0.0 | 2.6 | 0.00 | 0.00 | 0.00 | 80 | 1012.3 |
| 20260506061528 | 62 | 0 | 0.9 | 4.3 | 0.00 | 0.00 | 0.00 | 80 | 1012.3 |
| 20260506061008 | 62 | 0 | 0.9 | 4.3 | 0.00 | 0.00 | 0.00 | 80 | 1012.2 |
| 20260506060507 | 62 | 0 | 0.0 | 3.5 | 0.00 | 0.00 | 0.00 | 80 | 1012.3 |
| 20260506051010 | 63 | 0 | 0.9 | 4.3 | 0.00 | 0.00 | 0.00 | 79 | 1012.7 |
| 20260506050507 | 62 | 0 | 0.0 | 3.5 | 0.00 | 0.00 | 0.00 | 80 | 1012.6 |
| 20260506045011 | 63 | 159 | 0.9 | 5.2 | 0.00 | 0.00 | 0.00 | 79 | 1012.8 |
| 20260506044538 | 63 | 260 | 0.9 | 5.2 | 0.00 | 0.00 | 0.00 | 79 | 1012.8 |
| 20260506044008 | 63 | 144 | 0.9 | 4.3 | 0.00 | 0.00 | 0.00 | 78 | 1012.8 |
| 20260506043510 | 63 | 314 | 0.9 | 4.3 | 0.00 | 0.00 | 0.00 | 78 | 1012.8 |
| 20260506043030 | 63 | 153 | 0.0 | 4.3 | 0.00 | 0.00 | 0.00 | 78 | 1012.8 |
| 20260506042510 | 63 | 170 | 0.9 | 4.3 | 0.00 | 0.00 | 0.00 | 78 | 1012.8 |
| 20260506042011 | 63 | 0 | 0.0 | 3.5 | 0.00 | 0.00 | 0.00 | 78 | 1012.7 |
| 20260506041541 | 63 | 149 | 0.0 | 3.5 | 0.00 | 0.00 | 0.00 | 78 | 1012.8 |
| 20260506041012 | 63 | 135 | 0.0 | 6.1 | 0.00 | 0.00 | 0.00 | 77 | 1012.9 |
| 20260506040507 | 64 | 181 | 0.9 | 6.1 | 0.00 | 0.00 | 0.00 | 77 | 1012.8 |
| 20260506040033 | 64 | 143 | 0.9 | 4.3 | 0.00 | 0.00 | 0.00 | 77 | 1012.8 |
| 20260506035508 | 64 | 0 | 0.9 | 4.3 | 0.00 | 0.00 | 0.00 | 76 | 1012.8 |
| 20260506035010 | 64 | 219 | 0.9 | 4.3 | 0.00 | 0.00 | 0.00 | 75 | 1012.8 |
| 20260506034532 | 64 | 0 | 0.0 | 3.5 | 0.00 | 0.00 | 0.00 | 75 | 1012.8 |
| 20260506034013 | 65 | 0 | 0.0 | 3.5 | 0.00 | 0.00 | 0.00 | 74 | 1012.9 |
| 20260506033510 | 65 | 145 | 0.9 | 4.3 | 0.00 | 0.00 | 0.00 | 74 | 1012.9 |
| 20260506033028 | 65 | 134 | 0.9 | 4.3 | 0.00 | 0.00 | 0.00 | 74 | 1012.9 |
| 20260506032507 | 65 | 0 | 0.9 | 4.3 | 0.00 | 0.00 | 0.00 | 74 | 1012.9 |
| 20260506032008 | 65 | 149 | 0.0 | 4.3 | 0.00 | 0.00 | 0.00 | 74 | 1012.9 |
| 20260506031529 | 65 | 134 | 0.9 | 6.1 | 0.00 | 0.00 | 0.00 | 74 | 1012.8 |
| 20260506031009 | 65 | 265 | 0.9 | 6.1 | 0.00 | 0.00 | 0.00 | 74 | 1012.8 |
| 20260506030508 | 65 | 153 | 0.0 | 4.3 | 0.00 | 0.00 | 0.00 | 73 | 1012.9 |
| 20260506030028 | 65 | 0 | 0.9 | 4.3 | 0.00 | 0.00 | 0.00 | 74 | 1012.9 |
| 20260506025510 | 65 | 218 | 0.9 | 4.3 | 0.00 | 0.00 | 0.00 | 73 | 1012.9 |
| 20260506025008 | 65 | 163 | 0.0 | 3.5 | 0.00 | 0.00 | 0.00 | 73 | 1012.8 |
| 20260506024533 | 65 | 230 | 0.9 | 3.5 | 0.00 | 0.00 | 0.00 | 73 | 1012.9 |
| 20260506024011 | 65 | 190 | 0.9 | 4.3 | 0.00 | 0.00 | 0.00 | 73 | 1012.9 |
| 20260506023508 | 65 | 126 | 0.0 | 6.1 | 0.00 | 0.00 | 0.00 | 72 | 1012.9 |
| 20260506023030 | 65 | 178 | 0.9 | 6.1 | 0.00 | 0.00 | 0.00 | 72 | 1012.9 |
| 20260506022510 | 65 | 144 | 1.7 | 6.1 | 0.00 | 0.00 | 0.00 | 73 | 1012.9 |
| 20260506022008 | 65 | 269 | 0.9 | 4.3 | 0.00 | 0.00 | 0.00 | 72 | 1012.8 |
| 20260506021528 | 65 | 217 | 0.9 | 4.3 | 0.00 | 0.00 | 0.00 | 72 | 1012.9 |
| 20260506021016 | 65 | 145 | 0.9 | 5.2 | 0.00 | 0.00 | 0.00 | 72 | 1012.9 |
| 20260506020512 | 65 | 180 | 0.0 | 5.2 | 0.00 | 0.00 | 0.00 | 72 | 1012.9 |
| 20260506020030 | 65 | 186 | 0.9 | 5.2 | 0.00 | 0.00 | 0.00 | 72 | 1012.9 |
| 20260506015508 | 66 | 184 | 0.0 | 6.1 | 0.00 | 0.00 | 0.00 | 72 | 1012.8 |
| 20260506015010 | 65 | 114 | 1.7 | 7.0 | 0.00 | 0.00 | 0.00 | 72 | 1012.9 |
| 20260506014528 | 65 | 128 | 0.9 | 7.0 | 0.00 | 0.00 | 0.00 | 73 | 1012.9 |
| 20260506014010 | 65 | 160 | 0.9 | 7.0 | 0.00 | 0.00 | 0.00 | 73 | 1012.8 |
| 20260506013510 | 65 | 0 | 0.0 | 5.2 | 0.00 | 0.00 | 0.00 | 73 | 1012.7 |
| 20260506013032 | 65 | 0 | 0.9 | 4.3 | 0.00 | 0.00 | 0.00 | 72 | 1012.7 |
| 20260506012516 | 65 | 169 | 0.9 | 4.3 | 0.00 | 0.00 | 0.00 | 72 | 1012.7 |
| 20260506012015 | 65 | 252 | 0.9 | 6.1 | 0.00 | 0.00 | 0.00 | 71 | 1012.7 |
| 20260506011553 | 65 | 202 | 0.9 | 6.1 | 0.00 | 0.00 | 0.00 | 71 | 1012.7 |
| 20260506011015 | 65 | 296 | 0.9 | 7.0 | 0.00 | 0.00 | 0.00 | 71 | 1012.7 |
| 20260506010510 | 65 | 192 | 0.9 | 7.0 | 0.00 | 0.00 | 0.00 | 70 | 1012.5 |
| 20260506010030 | 66 | 156 | 0.9 | 5.2 | 0.00 | 0.00 | 0.00 | 69 | 1012.5 |
| 20260506005513 | 66 | 146 | 0.9 | 5.2 | 0.00 | 0.00 | 0.00 | 69 | 1012.4 |
| 20260506005009 | 66 | 219 | 0.9 | 7.8 | 0.00 | 0.00 | 0.00 | 68 | 1012.4 |
| 20260506004540 | 67 | 141 | 1.7 | 7.8 | 0.00 | 0.00 | 0.00 | 67 | 1012.4 |
| 20260506004012 | 67 | 167 | 1.7 | 7.8 | 0.00 | 0.00 | 0.00 | 66 | 1012.3 |
| 20260506003511 | 67 | 244 | 1.7 | 7.0 | 0.00 | 0.00 | 0.00 | 66 | 1012.3 |
| 20260506003031 | 67 | 155 | 1.7 | 7.0 | 0.00 | 0.00 | 0.00 | 65 | 1012.2 |
| 20260506002507 | 67 | 178 | 1.7 | 5.2 | 0.00 | 0.00 | 0.00 | 65 | 1012.2 |
| 20260506002008 | 67 | 95 | 0.9 | 4.3 | 0.00 | 0.00 | 0.00 | 65 | 1012.3 |
| 20260506001531 | 67 | 145 | 0.9 | 5.2 | 0.00 | 0.00 | 0.00 | 65 | 1012.3 |
| 20260506001008 | 67 | 0 | 1.7 | 8.7 | 0.00 | 0.00 | 0.00 | 64 | 1012.1 |
| 20260506000512 | 67 | 174 | 3.5 | 8.7 | 0.00 | 0.00 | 0.00 | 64 | 1012.2 |
| 20260506000028 | 68 | 134 | 0.9 | 7.0 | 0.00 | 0.00 | 0.00 | 63 | 1012.1 |
| 20260505235511 | 68 | 152 | 0.9 | 7.0 | 0.00 | 0.00 | 0.00 | 63 | 1012.0 |
| 20260505235010 | 69 | 138 | 0.9 | 3.5 | 0.00 | 0.00 | 0.00 | 61 | 1012.1 |
| 20260505234530 | 69 | 179 | 0.9 | 4.3 | 0.00 | 0.00 | 0.00 | 61 | 1012.0 |
| 20260505234120 | 69 | 0 | 0.9 | 6.1 | 0.00 | 0.00 | 0.00 | 60 | 1011.9 |
| 20260505233507 | 70 | 167 | 0.9 | 7.0 | 0.00 | 0.00 | 0.00 | 59 | 1011.9 |
| 20260505233033 | 70 | 223 | 0.0 | 7.0 | 0.00 | 0.00 | 0.00 | 59 | 1011.8 |
| 20260505232515 | 70 | 161 | 0.9 | 7.0 | 0.00 | 0.00 | 0.00 | 58 | 1011.8 |
| 20260505232010 | 71 | 342 | 0.9 | 7.0 | 0.00 | 0.00 | 0.00 | 58 | 1011.8 |
| 20260505231537 | 71 | 193 | 1.7 | 6.1 | 0.00 | 0.00 | 0.00 | 57 | 1011.8 |
| 20260505231011 | 71 | 150 | 1.7 | 6.1 | 0.00 | 0.00 | 0.00 | 57 | 1011.7 |
| 20260505230509 | 72 | 212 | 2.6 | 5.2 | 0.00 | 0.00 | 0.00 | 56 | 1011.7 |
| 20260505230028 | 72 | 136 | 1.7 | 4.3 | 0.00 | 0.00 | 0.00 | 56 | 1011.6 |
| 20260505225512 | 72 | 280 | 1.7 | 5.2 | 0.00 | 0.00 | 0.00 | 57 | 1011.5 |
| 20260505225011 | 72 | 0 | 0.0 | 5.2 | 0.00 | 0.00 | 0.00 | 56 | 1011.6 |
| 20260505224528 | 72 | 282 | 2.6 | 7.0 | 0.00 | 0.00 | 0.00 | 56 | 1011.6 |
| 20260505224010 | 73 | 212 | 2.6 | 7.0 | 0.00 | 0.00 | 0.00 | 54 | 1011.4 |
| 20260505223509 | 73 | 140 | 2.6 | 7.0 | 0.00 | 0.00 | 0.00 | 54 | 1011.3 |
| 20260505223033 | 74 | 0 | 2.6 | 7.0 | 0.00 | 0.00 | 0.00 | 53 | 1011.3 |
| 20260505222511 | 74 | 154 | 1.7 | 7.0 | 0.00 | 0.00 | 0.00 | 52 | 1011.2 |